Location: Houston
(29.7630°N, 95.3630°W)
Time: 05:50:54
(UTC-05:00)

Amateur Radio Satellites - All Passes

Search period start: 24 July 2017 05:20
Search period end: 25 July 2017 05:20
Location: Houston, 29.7630°N, 95.3630°W

Satellite Date Start Highest point End Downlink Frequencies (MHz)
Time Altitude Azimuth
AO-7 24 Jul 05:31:39 05:39:49 61° 291° (WNW) 05:47:57 .
CUBESAT XI-V 24 Jul 05:33:48 05:38:14 51° 260° (W) 05:42:42 437.345
DOVE 4 24 Jul 05:36:56 05:39:16 13° 92° (E) 05:41:34 437.250
Tancredo 1 24 Jul 05:41:54 05:43:42 15° 233° (SW) 05:45:29 437.200
PCSat 24 Jul 05:43:01 05:48:26 89° 293° (WNW) 05:53:53 145.827
nSIGHT-1 24 Jul 05:44:26 05:47:36 57° 229° (SW) 05:50:46 .
KKS-1 24 Jul 05:52:06 05:56:29 57° 259° (W) 06:00:54 437.445
JUGNU 24 Jul 05:54:37 05:57:17 13° 199° (SSW) 05:59:56 437.505
ITAMSAT 1 24 Jul 06:09:49 06:12:45 15° 293° (WNW) 06:15:40 435.822/435.867
STARS 24 Jul 06:25:10 06:29:32 60° 259° (W) 06:33:55 437.465
LilacSat-2 24 Jul 06:29:36 06:31:43 14° 95° (E) 06:33:48 437.200
KAITUO 1B 24 Jul 06:34:03 06:34:45 10° 94° (E) 06:35:27 145.475/437.950
ISS 24 Jul 06:38:55 06:40:28 13° 234° (SW) 06:42:01 437.550
XW-2F 24 Jul 06:45:42 06:48:35 21° 97° (E) 06:51:27 145.980 - 146.000
SO-50 24 Jul 06:47:01 06:51:33 71° 115° (ESE) 06:56:02 436.795
SRMSAT 24 Jul 06:51:06 06:55:50 25° 190° (S) 07:00:34 437.500
YUBILEINY 24 Jul 06:52:18 07:01:01 69° 83° (E) 07:09:39 435.215
DOVE 4 24 Jul 07:12:07 07:17:12 53° 285° (WNW) 07:22:04 437.250
XW-2D 24 Jul 07:12:53 07:16:35 58° 100° (E) 07:20:18 145.860 - 145.880
XW-2B 24 Jul 07:22:52 07:26:37 79° 101° (ESE) 07:30:23 145.730 - 145.750
CUTE 1.7 + AOD 2 24 Jul 07:37:35 07:39:59 15° 95° (E) 07:42:22 437.475
XW-2C 24 Jul 07:40:13 07:43:54 55° 283° (WNW) 07:47:35 145.795 - 145.815
CUTE-I 24 Jul 07:47:11 07:52:33 81° 284° (WNW) 07:57:52 437.470
HO-68 24 Jul 07:49:40 07:55:50 31° 98° (E) 08:01:56 435.675
SEEDS 24 Jul 07:52:17 07:54:18 13° 94° (E) 07:56:18 437.485
NUDT-PHONESAT 24 Jul 07:52:29 07:56:03 51° 283° (WNW) 07:59:37 437.300
STRAND 1 24 Jul 07:54:52 07:59:56 63° 75° (ENE) 08:05:02 437.568
XW-2A 24 Jul 07:56:25 07:57:10 11° 95° (E) 07:57:55 145.665 - 145.685
LilacSat-2 24 Jul 08:02:46 08:05:55 25° 287° (WNW) 08:09:04 437.200
KAITUO 1B 24 Jul 08:05:26 08:08:47 32° 285° (WNW) 08:12:08 145.475/437.950
XW-2F 24 Jul 08:20:01 08:22:30 17° 288° (WNW) 08:24:59 145.980 - 146.000
SO-50 24 Jul 08:31:59 08:32:25 10° 310° (NW) 08:32:51 436.795
AAUSAT CUBESAT 2 24 Jul 08:38:03 08:41:13 21° 96° (E) 08:44:23 437.432
CUBEBUG 2 24 Jul 08:40:36 08:44:36 42° 99° (E) 08:48:32 437.445
SRMSAT 24 Jul 08:41:50 08:44:26 13° 199° (SSW) 08:47:04 437.500
YUBILEINY 24 Jul 08:51:20 08:56:52 19° 278° (W) 09:02:24 435.215
FO-29 24 Jul 09:00:10 09:05:45 23° 64° (ENE) 09:11:29 435.910
AO-73 24 Jul 09:02:26 09:05:20 18° 96° (E) 09:08:13 145.935
CUTE 1.7 + AOD 2 24 Jul 09:12:02 09:15:48 32° 286° (WNW) 09:19:35 437.475
SEEDS 24 Jul 09:26:10 09:30:01 35° 286° (WNW) 09:33:52 437.485
XW-2A 24 Jul 09:27:08 09:29:53 24° 286° (WNW) 09:32:36 145.665 - 145.685
HO-68 24 Jul 09:36:59 09:43:29 39° 291° (WNW) 09:49:58 435.675
STRAND 1 24 Jul 09:38:23 09:39:24 11° 267° (W) 09:40:25 437.568
UWE-3 24 Jul 09:40:44 09:44:48 56° 284° (WNW) 09:48:50 435.000/436.395/437.385
DELFI C3 24 Jul 09:51:40 09:52:35 11° 94° (E) 09:53:30 145.870
UNISAT 6 24 Jul 09:53:09 09:56:52 24° 72° (ENE) 10:00:34 437.425
ZACube-1 24 Jul 09:56:40 10:00:46 71° 284° (WNW) 10:04:53 437.345
PRISM 24 Jul 10:08:30 10:11:56 27° 72° (ENE) 10:15:23 437.425
AAUSAT CUBESAT 2 24 Jul 10:13:18 10:16:31 22° 288° (WNW) 10:19:44 437.432
CUBEBUG 2 24 Jul 10:19:39 10:20:46 11° 292° (WNW) 10:21:51 437.445
Oscar 11 24 Jul 10:24:38 10:28:48 49° 285° (WNW) 10:32:58 .
EO-88 24 Jul 10:31:18 10:34:05 20° 97° (E) 10:36:51 145.990 - 145.960
TIGRISAT 24 Jul 10:36:37 10:41:16 72° 77° (ENE) 10:45:53 435.000
AO-73 24 Jul 10:38:10 10:41:28 24° 288° (WNW) 10:44:45 145.935
FO-29 24 Jul 10:42:43 10:49:59 63° 260° (W) 10:57:46 435.910
NO-84 24 Jul 10:46:15 10:48:46 27° 124° (SE) 10:51:25 435.350 FM
M-CUBED/EXP-1 PRIME 24 Jul 11:10:53 11:14:20 74° 254° (WSW) 11:18:05 437.505
DELFI C3 24 Jul 11:23:43 11:27:26 38° 285° (WNW) 11:31:08 145.870
UNISAT 6 24 Jul 11:29:35 11:33:24 25° 263° (W) 11:37:11 437.425
PRISM 24 Jul 11:44:34 11:47:09 16° 264° (W) 11:49:45 437.425
AIST 2D 24 Jul 11:53:25 11:56:51 64° 77° (ENE) 12:00:18 435.315
DUCHIFAT 1 24 Jul 12:02:31 12:06:00 25° 72° (ENE) 12:09:31 145.980
POLYITAN 1 24 Jul 12:03:17 12:07:08 34° 73° (ENE) 12:11:00 437.675
BEESAT 3 24 Jul 12:03:54 12:05:23 12° 108° (ESE) 12:06:52 437.485
EO-88 24 Jul 12:05:14 12:07:32 16° 288° (WNW) 12:09:50 145.990 - 145.960
LO-87 24 Jul 12:11:17 12:14:48 52° 101° (E) 12:18:16 145.935 - 145.965
QB50P2 24 Jul 12:15:54 12:20:05 55° 76° (ENE) 12:24:16 145.880/145.840
AO-85 24 Jul 12:20:59 12:24:08 21° 111° (ESE) 12:27:12 145.980
NO-84 24 Jul 12:24:41 12:26:16 13° 320° (NW) 12:27:53 435.350 FM
EO-79 24 Jul 12:28:10 12:32:25 72° 77° (ENE) 12:36:41 145.935-145.965
NANOSAT C BR1 24 Jul 12:28:48 12:33:01 65° 76° (ENE) 12:37:14 145.865
BUGSAT 1 24 Jul 12:35:36 12:38:16 16° 70° (ENE) 12:40:56 437.445
ESTCUBE 1 24 Jul 12:58:24 13:02:54 71° 284° (WNW) 13:07:24 437.505/2401.250
SPROUT 24 Jul 13:09:09 13:12:57 31° 98° (E) 13:16:43 437.525
50 SAT 24 Jul 13:23:42 13:24:51 11° 95° (E) 13:25:59 437.505
DUCHIFAT 1 24 Jul 13:38:35 13:41:35 19° 264° (W) 13:44:35 145.980
BEESAT 3 24 Jul 13:38:51 13:42:32 37° 301° (WNW) 13:46:17 437.485
POLYITAN 1 24 Jul 13:40:38 13:42:56 14° 265° (W) 13:45:14 437.675
VELOX 1 24 Jul 13:47:36 13:52:05 81° 103° (ESE) 13:56:31 145.980
Oscar 19 24 Jul 13:50:46 13:55:42 51° 74° (ENE) 14:00:39 437.125/150
DX 1 24 Jul 13:56:17 13:59:55 25° 97° (E) 14:03:33 434.975-435.025
AO-85 24 Jul 14:01:15 14:04:21 21° 303° (WNW) 14:07:25 145.980
BUGSAT 1 24 Jul 14:09:36 14:13:19 30° 262° (W) 14:17:04 437.445
Gurwin Techsat 1B 24 Jul 14:10:26 14:15:33 50° 73° (ENE) 14:20:40 435.225
BEESAT 2 24 Jul 14:16:43 14:20:30 45° 300° (WNW) 14:24:22 435.950
AO-7 24 Jul 14:34:11 14:39:43 20° 59° (ENE) 14:45:15 .
PCSat 24 Jul 14:37:55 14:41:59 21° 57° (ENE) 14:46:01 145.827
UKube-1 24 Jul 14:39:57 14:44:13 57° 101° (E) 14:48:27 .
SPROUT 24 Jul 14:45:59 14:48:32 16° 290° (WNW) 14:51:04 437.525
50 SAT 24 Jul 14:54:41 14:57:31 25° 287° (WNW) 15:00:22 437.505
O/OREOS (USA 219) 24 Jul 15:20:20 15:24:26 35° 104° (ESE) 15:28:30 437.305
SO-50 24 Jul 15:25:39 15:27:51 13° 52° (NE) 15:30:04 436.795
MOZHAYETS 4 24 Jul 15:29:15 15:30:25 11° 93° (E) 15:31:35
DX 1 24 Jul 15:32:40 15:35:53 20° 290° (WNW) 15:39:06 434.975-435.025
Oscar 19 24 Jul 15:32:49 15:35:12 13° 266° (W) 15:37:36 437.125/150
ITAMSAT 1 24 Jul 15:40:43 15:45:35 41° 72° (ENE) 15:50:28 435.822/435.867
RS-15 24 Jul 15:47:43 15:59:19 57° 109° (ESE) 16:11:12 29.354- 29.394
Gurwin Techsat 1B 24 Jul 15:52:48 15:55:39 15° 266° (W) 15:58:32 435.225
BEESAT 24 Jul 15:56:41 16:01:02 35° 99° (E) 16:05:22 436.000
ITUPSAT 1 24 Jul 16:09:14 16:13:51 48° 101° (E) 16:18:25 437.325
PCSat 24 Jul 16:20:25 16:25:28 40° 251° (WSW) 16:30:28 145.827
AO-7 24 Jul 16:23:14 16:31:33 76° 254° (WSW) 16:39:58 .
O/OREOS (USA 219) 24 Jul 17:01:12 17:03:53 15° 297° (WNW) 17:06:33 437.305
MOZHAYETS 4 24 Jul 17:03:20 17:07:44 49° 285° (WNW) 17:12:07
SO-50 24 Jul 17:04:07 17:08:34 53° 246° (WSW) 17:13:02 436.795
ITAMSAT 1 24 Jul 17:21:40 17:25:06 18° 264° (W) 17:28:34 435.822/435.867
BEESAT 24 Jul 17:35:23 17:38:29 18° 291° (WNW) 17:41:34 436.000
CUBESAT XI-V 24 Jul 17:35:58 17:40:36 62° 101° (E) 17:45:14 437.345
KKS-1 24 Jul 17:48:59 17:53:14 42° 100° (E) 17:57:27 437.445
ITUPSAT 1 24 Jul 17:49:02 17:51:11 13° 293° (WNW) 17:53:19 437.325
XW-2D 24 Jul 17:50:19 17:51:43 12° 70° (ENE) 17:53:07 145.860 - 145.880
YUBILEINY 24 Jul 17:54:27 17:58:15 14° 80° (E) 18:02:04 435.215
XW-2B 24 Jul 17:59:28 18:01:42 15° 71° (ENE) 18:03:55 145.730 - 145.750
RS-15 24 Jul 18:01:06 18:12:08 39° 308° (NW) 18:23:26 29.354- 29.394
DOVE 4 24 Jul 18:10:31 18:15:14 78° 77° (ENE) 18:20:17 437.250
XW-2C 24 Jul 18:15:46 18:18:55 26° 73° (ENE) 18:22:02 145.795 - 145.815
HO-68 24 Jul 18:15:52 18:18:16 12° 59° (ENE) 18:20:40 435.675
STARS 24 Jul 18:20:33 18:24:39 38° 99° (E) 18:28:43 437.465
NUDT-PHONESAT 24 Jul 18:25:58 18:29:01 25° 73° (ENE) 18:32:03 437.300
LilacSat-2 24 Jul 18:37:49 18:41:32 59° 76° (ENE) 18:45:14 437.200
KAITUO 1B 24 Jul 18:39:02 18:42:29 39° 75° (ENE) 18:45:57 145.475/437.950
XW-2F 24 Jul 18:53:25 18:57:09 88° 92° (E) 19:00:53 145.980 - 146.000
NO-84 24 Jul 19:00:52 19:04:01 22° 44° (NE) 19:07:18 435.350 FM
CUTE-I 24 Jul 19:02:44 19:08:06 89° 263° (W) 19:13:30 437.470
XW-2D 24 Jul 19:22:12 19:25:33 31° 262° (W) 19:28:54 145.860 - 145.880
KKS-1 24 Jul 19:27:18 19:29:21 13° 292° (WNW) 19:31:23 437.445
XW-2B 24 Jul 19:32:34 19:35:38 24° 263° (W) 19:38:41 145.730 - 145.750
CUBEBUG 2 24 Jul 19:32:57 19:36:19 20° 71° (ENE) 19:39:40 437.445
YUBILEINY 24 Jul 19:44:56 19:53:47 87° 273° (W) 20:02:41 435.215
XW-2C 24 Jul 19:51:07 19:53:03 14° 265° (W) 19:54:59 145.795 - 145.815
XW-2A 24 Jul 19:51:55 19:54:59 32° 75° (ENE) 19:58:02 145.665 - 145.685
HO-68 24 Jul 19:57:44 20:04:55 84° 74° (ENE) 20:12:07 435.675
CUTE 1.7 + AOD 2 24 Jul 19:57:50 20:02:01 78° 77° (ENE) 20:06:12 437.475
STARS 24 Jul 19:58:18 20:00:36 14° 292° (WNW) 20:02:53 437.465
NUDT-PHONESAT 24 Jul 20:00:58 20:02:51 13° 265° (W) 20:04:44 437.300
ISS 24 Jul 20:01:05 20:03:27 19° 127° (SE) 20:05:49 437.550
SEEDS 24 Jul 20:11:05 20:15:11 67° 77° (ENE) 20:19:19 437.485
STRAND 1 24 Jul 20:11:47 20:16:26 35° 99° (E) 20:21:03 437.568
RS-15 24 Jul 20:28:23 20:29:45 10° 339° (NNW) 20:31:06 29.354- 29.394
Tancredo 1 24 Jul 20:30:04 20:32:50 37° 317° (NW) 20:35:36 437.200
UWE-3 24 Jul 20:30:50 20:35:19 52° 76° (ENE) 20:39:43 435.000/436.395/437.385
NO-84 24 Jul 20:37:47 20:41:34 35° 235° (SW) 20:45:29 435.350 FM
nSIGHT-1 24 Jul 20:42:45 20:45:57 73° 133° (SE) 20:49:10 .
ZACube-1 24 Jul 20:45:59 20:50:10 40° 75° (ENE) 20:54:18 437.345
AAUSAT CUBESAT 2 24 Jul 20:56:07 21:00:11 76° 259° (W) 21:04:18 437.432
CUBEBUG 2 24 Jul 21:08:30 21:12:40 31° 262° (W) 21:16:48 437.445
Oscar 11 24 Jul 21:12:56 21:17:07 55° 76° (ENE) 21:21:19 .
AO-73 24 Jul 21:26:10 21:30:37 71° 258° (WSW) 21:35:00 145.935
ISS 24 Jul 21:37:02 21:39:47 25° 320° (NW) 21:42:31 437.550
YUBILEINY 24 Jul 21:48:00 21:51:39 13° 292° (WNW) 21:55:19 435.215
HO-68 24 Jul 21:50:31 21:53:11 12° 267° (W) 21:55:51 435.675
STRAND 1 24 Jul 21:51:38 21:55:18 20° 291° (WNW) 21:58:57 437.568
FO-29 24 Jul 22:01:17 22:06:55 28° 94° (E) 22:12:00 435.910
BEESAT 3 24 Jul 22:01:45 22:04:30 18° 55° (NE) 22:07:11 437.485
DELFI C3 24 Jul 22:02:35 22:06:19 46° 76° (ENE) 22:10:06 145.870
UWE-3 24 Jul 22:11:06 22:11:54 10° 267° (W) 22:12:43 435.000/436.395/437.385
ZACube-1 24 Jul 22:24:26 22:26:30 13° 266° (W) 22:28:33 437.345
JUGNU 24 Jul 22:24:30 22:28:03 16° 163° (SSE) 22:31:36 437.505
TIGRISAT 24 Jul 22:35:03 22:38:24 22° 96° (E) 22:41:43 435.000
EO-88 24 Jul 22:35:27 22:39:04 81° 78° (ENE) 22:42:43 145.990 - 145.960
AO-85 24 Jul 22:36:06 22:40:19 51° 61° (ENE) 22:44:51 145.980
BEESAT 2 24 Jul 22:40:49 22:43:21 16° 54° (NE) 22:45:51 435.950
M-CUBED/EXP-1 PRIME 24 Jul 22:55:42 22:58:27 16° 99° (E) 23:01:12 437.505
UNISAT 6 24 Jul 23:26:28 23:30:44 69° 284° (WNW) 23:34:57 437.425
PRISM 24 Jul 23:29:54 23:34:04 77° 283° (WNW) 23:38:12 437.425
BEESAT 3 24 Jul 23:38:41 23:42:02 26° 249° (WSW) 23:45:19 437.485
FO-29 24 Jul 23:45:44 23:51:59 37° 291° (WNW) 23:57:34 435.910
ESTCUBE 1 24 Jul 23:51:41 23:55:58 48° 75° (ENE) 00:00:17 437.505/2401.250
SPROUT 24 Jul 23:58:37 00:00:07 12° 68° (ENE) 00:01:39 437.525
QB50P2 25 Jul 00:08:13 00:10:29 14° 95° (E) 00:12:45 145.880/145.840
JUGNU 25 Jul 00:11:32 00:16:33 28° 172° (S) 00:21:33 437.505
TIGRISAT 25 Jul 00:11:41 00:14:55 21° 289° (WNW) 00:18:08 435.000
LO-87 25 Jul 00:14:20 00:17:44 39° 261° (W) 00:21:10 145.935 - 145.965
BEESAT 2 25 Jul 00:17:33 00:21:08 31° 248° (WSW) 00:24:41 435.950
AO-85 25 Jul 00:18:55 00:20:22 11° 251° (WSW) 00:21:50 145.980
EO-79 25 Jul 00:19:48 00:22:42 18° 96° (E) 00:25:35 145.935-145.965
NANOSAT C BR1 25 Jul 00:20:16 00:22:53 16° 95° (E) 00:25:29 145.865
M-CUBED/EXP-1 PRIME 25 Jul 00:28:31 00:32:52 41° 290° (WNW) 00:37:13 437.505
VELOX 1 25 Jul 00:38:55 00:42:50 32° 73° (ENE) 00:46:48 145.980
DX 1 25 Jul 00:48:26 00:49:26 11° 67° (ENE) 00:50:27 434.975-435.025
AIST 2D 25 Jul 00:57:16 01:00:32 39° 284° (WNW) 01:03:49 435.315
RS-15 25 Jul 00:58:14 01:09:07 38° 51° (NE) 01:19:25 29.354- 29.394
SRMSAT 25 Jul 01:13:15 01:16:48 16° 163° (SSE) 01:20:21 437.500
50 SAT 25 Jul 01:19:38 01:22:43 34° 75° (ENE) 01:25:50 437.505
DUCHIFAT 1 25 Jul 01:26:59 01:31:09 75° 283° (WNW) 01:35:18 145.980
UKube-1 25 Jul 01:29:02 01:32:21 22° 71° (ENE) 01:35:40 .
POLYITAN 1 25 Jul 01:29:13 01:33:18 53° 285° (WNW) 01:37:21 437.675
SPROUT 25 Jul 01:31:29 01:35:35 43° 261° (W) 01:39:41 437.525
ESTCUBE 1 25 Jul 01:32:02 01:32:57 11° 267° (W) 01:33:51 437.505/2401.250
O/OREOS (USA 219) 25 Jul 01:36:23 01:40:09 26° 66° (ENE) 01:43:54 437.305
QB50P2 25 Jul 01:42:33 01:46:17 32° 287° (WNW) 01:50:01 145.880/145.840
EO-79 25 Jul 01:54:55 01:58:22 25° 288° (WNW) 02:01:48 145.935-145.965
NANOSAT C BR1 25 Jul 01:54:58 01:58:32 28° 288° (WNW) 02:02:06 145.865
BUGSAT 1 25 Jul 01:56:45 02:00:46 60° 100° (E) 02:04:44 437.445
JUGNU 25 Jul 01:59:53 02:05:08 32° 182° (S) 02:10:22 437.505
Oscar 19 25 Jul 02:08:40 02:13:10 30° 98° (E) 02:17:39 437.125/150
VELOX 1 25 Jul 02:16:36 02:19:17 16° 265° (W) 02:22:00 145.980
DX 1 25 Jul 02:20:54 02:25:06 49° 260° (W) 02:29:21 434.975-435.025
Gurwin Techsat 1B 25 Jul 02:33:01 02:37:46 33° 98° (E) 02:42:29 435.225
BEESAT 25 Jul 02:57:44 03:01:19 21° 70° (ENE) 03:04:54 436.000
SRMSAT 25 Jul 03:00:29 03:05:27 28° 172° (S) 03:10:24 437.500
UKube-1 25 Jul 03:04:48 03:08:12 23° 263° (W) 03:11:36 .
ITUPSAT 1 25 Jul 03:10:16 03:14:22 29° 71° (ENE) 03:18:28 437.325
RS-15 25 Jul 03:10:27 03:21:51 56° 251° (WSW) 03:32:41 29.354- 29.394
O/OREOS (USA 219) 25 Jul 03:16:01 03:19:20 20° 259° (W) 03:22:39 437.305
Oscar 19 25 Jul 03:48:10 03:52:16 24° 290° (WNW) 03:56:23 437.125/150
JUGNU 25 Jul 03:49:00 03:53:41 24° 192° (SSW) 03:58:22 437.505
MOZHAYETS 4 25 Jul 03:58:37 04:03:11 76° 77° (ENE) 04:07:46
ITAMSAT 1 25 Jul 04:00:11 04:04:18 24° 97° (E) 04:08:24 435.822/435.867
ISS 25 Jul 04:09:32 04:11:52 18° 38° (NE) 04:14:12 437.550
Gurwin Techsat 1B 25 Jul 04:13:20 04:17:28 23° 291° (WNW) 04:21:34 435.225
AO-7 25 Jul 04:31:51 04:40:01 56° 103° (ESE) 04:48:07 .
Tancredo 1 25 Jul 04:33:08 04:36:03 61° 228° (SW) 04:38:58 437.200
CUBESAT XI-V 25 Jul 04:33:34 04:37:31 29° 72° (ENE) 04:41:28 437.345
BEESAT 25 Jul 04:34:44 04:38:51 29° 262° (W) 04:42:59 436.000
KKS-1 25 Jul 04:41:51 04:45:01 19° 70° (ENE) 04:48:12 437.445
ITUPSAT 1 25 Jul 04:48:30 04:52:07 21° 263° (W) 04:55:44 437.325
SRMSAT 25 Jul 04:49:00 04:54:10 31° 182° (S) 04:59:20 437.500
nSIGHT-1 25 Jul 04:51:07 04:54:17 54° 45° (NE) 04:57:27 .
STARS 25 Jul 05:12:13 05:15:02 17° 69° (ENE) 05:17:49 437.465
